Location: Theydon Bois
(51.6750°N, 0.1050°E)
Time: 00:42:44
(UTC+00:00)

Envisat - Pass Details

Date: 15 December 2019
Orbit: 764 x 766 km, 98.1° (Epoch: 21 January)

Event Time Altitude Azimuth Distance (km) Brightness Sun altitude
Rises 17:51:33 0° 169° (S) 3,222 6.3 -17.6°
Reaches altitude 10° 17:53:51 10° 171° (S) 2,300 5.5 -17.9°
Maximum altitude 17:58:55 74° 256° (WSW) 800 3.2 -18.7°
Drops below altitude 10° 18:04:02 10° 343° (NNW) 2,317 5.5 -19.5°
Sets 18:06:22 0° 345° (NNW) 3,248 6.3 -19.8°
